Location: Unspecified
(0.0000°N, 0.0000°E)
Time: 12:11:32
(UTC+00:00)

SR - Pass Details

Date: 15 December 2018
Orbit: 581 x 875 km, 66.7° (Epoch: 16 July)

Event Time Altitude Azimuth Distance (km) Brightness Sun altitude
Rises 13:04:27 0° 319° (NW) 2,800 ? 61.3°
Reaches altitude 10° 13:06:59 10° 306° (NW) 1,890 ? 60.9°
Maximum altitude 13:10:27 25° 250° (WSW) 1,188 ? 60.4°
Drops below altitude 10° 13:13:57 10° 194° (SSW) 1,908 ? 59.9°
Sets 13:16:32 0° 180° (S) 2,833 ? 59.5°
